FW0807 Weather Reports


Display with metric or nautical units.
time (UTC)temp
F
wind
direction
speed
MPH
gust
MPH
rain 1hr
in
rain 24hr
in
rain mn
in
humidity
%
barometer
mb
20260504050105 63 180 2.0 5.0 0.00 0.00 0.00 71 1013.2
20260504044539 64 161 3.0 5.0 0.00 0.00 0.00 70 1013.4
20260504043038 64 196 1.0 6.0 0.00 0.00 0.00 70 1013.5
20260504041538 64 159 3.0 7.0 0.00 0.00 0.00 70 1013.6
20260504040138 64 186 2.0 6.0 0.00 0.00 0.00 70 1013.7
20260504034547 63 192 1.0 6.0 0.00 0.00 0.00 71 1013.9
20260504033036 64 192 3.0 6.0 0.00 0.00 0.00 70 1014.0
20260504031542 64 186 2.0 6.0 0.00 0.00 0.00 69 1013.9
20260504030040 64 224 1.0 5.0 0.00 0.00 0.00 69 1014.0
20260504024538 64 203 1.0 5.0 0.00 0.00 0.00 69 1013.9
20260504023033 64 184 2.0 5.0 0.00 0.00 0.00 69 1013.6
20260504021533 62 190 2.0 6.0 0.00 0.00 0.00 73 1013.6
20260504020132 61 175 0.0 2.0 0.00 0.00 0.00 74 1013.7
20260504014532 61 175 0.0 1.0 0.00 0.00 0.00 75 1013.6
20260504013030 63 197 0.0 1.0 0.00 0.00 0.00 73 1013.5
20260504011531 64 197 0.0 2.0 0.00 0.00 0.00 68 1013.4
20260504010030 67 175 0.0 2.0 0.00 0.00 0.00 64 1013.3
20260504004530 69 170 0.0 5.0 0.00 0.00 0.00 58 1013.2
20260504003027 71 194 3.0 4.0 0.00 0.00 0.00 56 1013.4
20260504001526 72 194 2.0 6.0 0.00 0.00 0.00 55 1013.4
20260504000025 73 165 3.0 8.0 0.00 0.00 0.00 54 1013.6
20260503234527 73 192 5.0 11.0 0.00 0.00 0.00 51 1013.6
20260503233024 74 176 5.0 9.0 0.00 0.00 0.00 51 1013.9
20260503231522 74 238 2.0 8.0 0.00 0.00 0.00 52 1014.0
20260503230020 74 217 4.0 9.0 0.00 0.00 0.00 52 1014.0
20260503224520 75 230 5.0 9.0 0.00 0.00 0.00 51 1014.2
20260503223023 75 205 4.0 13.0 0.00 0.00 0.00 50 1014.2
20260503221516 75 194 2.0 8.0 0.00 0.00 0.00 51 1014.4
20260503220017 75 169 4.0 11.0 0.00 0.00 0.00 49 1014.7
20260503214514 75 239 4.0 10.0 0.00 0.00 0.00 48 1015.0
20260503213011 75 238 3.0 8.0 0.00 0.00 0.00 48 1014.9
20260503211516 75 231 3.0 6.0 0.00 0.00 0.00 51 1015.3
20260503210015 75 180 3.0 13.0 0.00 0.00 0.00 48 1015.8
20260503204624 75 163 5.0 11.0 0.00 0.00 0.00 49 1016.1
20260503203005 74 200 5.0 10.0 0.00 0.00 0.00 49 1016.2
20260503201600 74 224 3.0 9.0 0.00 0.00 0.00 49 1016.4
20260503200059 73 225 5.0 10.0 0.00 0.00 0.00 46 1016.9
20260503194555 74 271 4.0 10.0 0.00 0.00 0.00 48 1017.1
20260503193055 73 177 4.0 13.0 0.00 0.00 0.00 47 1017.3
20260503191603 73 246 4.0 9.0 0.00 0.00 0.00 50 1017.5
20260503190050 72 165 5.0 9.0 0.00 0.00 0.00 49 1017.7
20260503184605 71 166 5.0 10.0 0.00 0.00 0.00 48 1017.9
20260503183048 71 192 6.0 9.0 0.00 0.00 0.00 49 1018.1
20260503181544 71 312 3.0 9.0 0.00 0.00 0.00 53 1018.4
20260503180041 70 205 4.0 12.0 0.00 0.00 0.00 49 1018.7
20260503174549 69 169 4.0 8.0 0.00 0.00 0.00 51 1019.0
20260503173035 69 184 3.0 10.0 0.00 0.00 0.00 48 1019.4
20260503171534 69 163 5.0 10.0 0.00 0.00 0.00 51 1019.7
20260503100108 36 161 0.0 0.0 0.00 0.00 0.00 95 1020.9
20260503090105 37 161 0.0 0.0 0.00 0.00 0.00 95 1021.1
20260503081557 38 161 0.0 0.0 0.00 0.00 0.00 95 1021.0